sat.trackr.live / text

‹ back to catalog

STARLINK-6195

NORAD 56902 · 2023-083AC

PAYLOAD ACTIVE UNKNOWN

§ Identity

Operator
Country
US
Launch date
2023-06-12
Launch site
AFETR
Launch vehicle
Mass (kg)
RCS (m²)

Purposes: comms

External: N2YO · Heavens-Above · Gunter

§ Orbital elements

Epoch: 2026-05-24T23:51:21.229344Z

Period
94.27 min
Inclination
43.0059°
Eccentricity
0.0000951
Mean motion
15.27578000 rev/d
Perigee alt
482.4 km
Apogee alt
483.7 km
Semi-major
6,861.2 km
B*
2.5331e-5
RAAN
0.1239°
Arg perigee
257.3022°
Mean anomaly
102.7724°
Rev number
16,357

§ Raw data

STARLINK-61951 56902U 23083AC  26144.99399571  .00000435  00000+0  25331-4 0  99962 56902  43.0059   0.1239 0000951 257.3022 102.7724 15.27578000163576

JSON: /api/v1/satellites/56902 · /tle

For live sub-satellite position, see the globe view (requires WebGL).

§ Visibility from observer

Set your observer location to see the next 7 days of passes ≥ 10°. The values pass through the URL so the page stays shareable.

No JS? Fill the form by hand. The geolocation button needs JavaScript.